Time,TemperatureF,DewpointF,PressureIn,WindDirection,WindDirectionDegrees,WindSpeedMPH,WindSpeedGustMPH,Humidity,HourlyPrecipIn,Conditions,Clouds,dailyrainin,SoftwareType,DateUTC
2013-03-22 00:02:00,24.0,14.0,30.04,NNW,347,0.0,0.0,66,0.00,,,0.00,,2013-03-22 05:02:00,
2013-03-22 00:12:00,24.0,14.0,30.04,NNW,347,0.0,0.0,66,0.00,,,0.00,,2013-03-22 05:12:00,
2013-03-22 00:22:00,24.0,14.0,30.04,NNW,347,0.0,0.0,65,0.00,,,0.00,,2013-03-22 05:22:00,
2013-03-22 00:32:00,24.0,14.0,30.04,NNW,347,0.0,0.0,66,0.00,,,0.00,,2013-03-22 05:32:00,
2013-03-22 00:42:00,24.0,14.0,30.04,NNW,347,0.0,0.0,66,0.00,,,0.00,,2013-03-22 05:42:00,
2013-03-22 00:52:00,23.0,14.0,30.04,NNW,347,0.0,0.0,68,0.00,,,0.00,,2013-03-22 05:52:00,
2013-03-22 01:02:00,23.0,14.0,30.04,NNW,347,0.0,0.0,68,0.00,,,0.00,,2013-03-22 06:02:00,
2013-03-22 01:12:00,23.0,14.0,30.04,NNW,347,0.0,0.0,68,0.00,,,0.00,,2013-03-22 06:12:00,
2013-03-22 01:22:00,22.0,13.0,30.04,NNW,347,0.0,0.0,68,0.00,,,0.00,,2013-03-22 06:22:00,
2013-03-22 01:32:00,22.0,14.0,30.04,NNW,347,0.0,0.0,70,0.00,,,0.00,,2013-03-22 06:32:00,
2013-03-22 01:42:00,22.0,14.0,30.04,NNW,347,0.0,0.0,70,0.00,,,0.00,,2013-03-22 06:42:00,
2013-03-22 01:52:00,22.0,14.0,30.04,NNW,347,0.0,0.0,71,0.00,,,0.00,,2013-03-22 06:52:00,
2013-03-22 02:02:00,22.0,14.0,30.04,NNW,347,0.0,0.0,71,0.00,,,0.00,,2013-03-22 07:02:00,
2013-03-22 02:12:00,22.0,14.0,30.04,NNW,347,0.0,0.0,71,0.00,,,0.00,,2013-03-22 07:12:00,
2013-03-22 02:22:00,22.0,14.0,30.05,NNW,347,0.0,0.0,72,0.00,,,0.00,,2013-03-22 07:22:00,
2013-03-22 02:32:00,21.0,13.0,30.06,NNW,347,0.0,0.0,71,0.00,,,0.00,,2013-03-22 07:32:00,
2013-03-22 02:42:00,21.0,13.0,30.06,NNW,347,0.0,0.0,71,0.00,,,0.00,,2013-03-22 07:42:00,
2013-03-22 02:52:00,21.0,13.0,30.06,NNW,347,0.0,0.0,72,0.00,,,0.00,,2013-03-22 07:52:00,
2013-03-22 03:03:00,21.0,13.0,30.06,NNW,347,0.0,0.0,72,0.00,,,0.00,,2013-03-22 08:03:00,
2013-03-22 03:12:00,21.0,13.0,30.06,NNW,347,0.0,0.0,72,0.00,,,0.00,,2013-03-22 08:12:00,
2013-03-22 03:22:00,21.0,13.0,30.06,NNW,347,0.0,0.0,72,0.00,,,0.00,,2013-03-22 08:22:00,
2013-03-22 03:32:00,21.0,14.0,30.06,NNW,347,0.0,0.0,73,0.00,,,0.00,,2013-03-22 08:32:00,
2013-03-22 03:42:00,21.0,14.0,30.06,NNW,347,0.0,0.0,73,0.00,,,0.00,,2013-03-22 08:42:00,
2013-03-22 03:52:00,21.0,14.0,30.06,NNW,347,0.0,0.0,74,0.00,,,0.00,,2013-03-22 08:52:00,
2013-03-22 04:02:00,20.0,13.0,30.06,NNW,347,0.0,0.0,73,0.00,,,0.00,,2013-03-22 09:02:00,
2013-03-22 04:12:00,20.0,13.0,30.06,NNW,347,0.0,0.0,73,0.00,,,0.00,,2013-03-22 09:12:00,
2013-03-22 04:22:00,20.0,13.0,30.06,NNW,347,0.0,0.0,74,0.00,,,0.00,,2013-03-22 09:22:00,
2013-03-22 04:32:00,20.0,13.0,30.06,NNW,347,0.0,0.0,74,0.00,,,0.00,,2013-03-22 09:32:00,
2013-03-22 04:42:00,20.0,13.0,30.06,NNW,347,0.0,0.0,74,0.00,,,0.00,,2013-03-22 09:42:00,
2013-03-22 04:53:00,20.0,13.0,30.05,NNW,347,0.0,0.0,73,0.00,,,0.00,,2013-03-22 09:53:00,
2013-03-22 05:03:00,20.0,13.0,30.05,NNW,347,0.0,0.0,74,0.00,,,0.00,,2013-03-22 10:03:00,
2013-03-22 05:12:00,20.0,13.0,30.05,NNW,347,0.0,0.0,74,0.00,,,0.00,,2013-03-22 10:12:00,
2013-03-22 05:22:00,19.0,12.0,30.04,NNW,347,0.0,0.0,74,0.00,,,0.00,,2013-03-22 10:22:00,
2013-03-22 05:32:00,19.0,12.0,30.05,NNW,347,0.0,1.0,75,0.00,,,0.00,,2013-03-22 10:32:00,
2013-03-22 05:42:00,19.0,12.0,30.05,NNW,347,0.0,1.0,75,0.00,,,0.00,,2013-03-22 10:42:00,
2013-03-22 05:52:00,19.0,12.0,30.04,NNW,347,0.0,1.0,75,0.00,,,0.00,,2013-03-22 10:52:00,
2013-03-22 06:03:00,19.0,12.0,30.04,NNW,347,0.0,0.0,75,0.00,,,0.00,,2013-03-22 11:03:00,
2013-03-22 06:12:00,19.0,12.0,30.04,NNW,347,0.0,0.0,75,0.00,,,0.00,,2013-03-22 11:12:00,
2013-03-22 06:22:00,19.0,13.0,30.03,NNW,347,0.0,0.0,76,0.00,,,0.00,,2013-03-22 11:22:00,
2013-03-22 06:32:00,19.0,12.0,30.04,NNW,347,0.0,0.0,74,0.00,,,0.00,,2013-03-22 11:32:00,
2013-03-22 06:42:00,19.0,12.0,30.04,NNW,347,0.0,0.0,74,0.00,,,0.00,,2013-03-22 11:42:00,
2013-03-22 06:52:00,18.0,11.0,30.04,NNW,347,0.0,0.0,75,0.00,,,0.00,,2013-03-22 11:52:00,
2013-03-22 07:02:00,18.0,11.0,30.05,NNW,347,0.0,0.0,75,0.00,,,0.00,,2013-03-22 12:02:00,
2013-03-22 07:12:00,18.0,11.0,30.05,NNW,347,0.0,0.0,75,0.00,,,0.00,,2013-03-22 12:12:00,
2013-03-22 07:22:00,18.0,11.0,30.05,NNW,347,0.0,0.0,75,0.00,,,0.00,,2013-03-22 12:22:00,
2013-03-22 07:32:00,18.0,11.0,30.06,NNW,347,0.0,0.0,74,0.00,,,0.00,,2013-03-22 12:32:00,
2013-03-22 07:42:00,18.0,11.0,30.06,NNW,347,0.0,0.0,74,0.00,,,0.00,,2013-03-22 12:42:00,
2013-03-22 07:52:00,19.0,12.0,30.06,NNW,347,0.0,0.0,74,0.00,,,0.00,,2013-03-22 12:52:00,
2013-03-22 08:02:00,19.0,12.0,30.06,NNW,347,0.0,0.0,74,0.00,,,0.00,,2013-03-22 13:02:00,
2013-03-22 08:12:00,19.0,12.0,30.06,NNW,347,0.0,0.0,74,0.00,,,0.00,,2013-03-22 13:12:00,
2013-03-22 08:22:00,20.0,14.0,30.06,NNW,347,0.0,0.0,76,0.00,,,0.00,,2013-03-22 13:22:00,
2013-03-22 08:32:00,22.0,16.0,30.06,NNW,347,0.0,0.0,77,0.00,,,0.00,,2013-03-22 13:32:00,
2013-03-22 08:42:00,22.0,16.0,30.06,NNW,347,0.0,0.0,77,0.00,,,0.00,,2013-03-22 13:42:00,
2013-03-22 08:52:00,23.0,17.0,30.05,NNW,347,0.0,0.0,77,0.00,,,0.00,,2013-03-22 13:52:00,
2013-03-22 09:02:00,25.0,18.0,30.05,NNW,347,0.0,0.0,75,0.00,,,0.00,,2013-03-22 14:02:00,
2013-03-22 09:12:00,25.0,18.0,30.05,NNW,347,0.0,0.0,75,0.00,,,0.00,,2013-03-22 14:12:00,
2013-03-22 09:22:00,25.0,17.0,30.06,NNW,347,0.0,1.0,71,0.00,,,0.00,,2013-03-22 14:22:00,
2013-03-22 09:32:00,27.0,18.0,30.06,SW,217,1.0,2.0,67,0.00,,,0.00,,2013-03-22 14:32:00,
2013-03-22 09:42:00,27.0,18.0,30.06,SW,217,1.0,2.0,67,0.00,,,0.00,,2013-03-22 14:42:00,
2013-03-22 09:52:00,28.0,18.0,30.06,SW,216,0.0,3.0,65,0.00,,,0.00,,2013-03-22 14:52:00,
2013-03-22 10:03:00,29.0,17.0,30.06,ESE,106,1.0,3.0,60,0.00,,,0.00,,2013-03-22 15:03:00,
2013-03-22 10:12:00,29.0,17.0,30.06,ESE,106,1.0,3.0,60,0.00,,,0.00,,2013-03-22 15:12:00,
2013-03-22 10:22:00,31.0,18.0,30.06,ESE,109,1.0,3.0,57,0.00,,,0.00,,2013-03-22 15:22:00,
2013-03-22 10:32:00,32.0,17.0,30.06,SE,139,0.0,4.0,54,0.00,,,0.00,,2013-03-22 15:32:00,
2013-03-22 10:42:00,32.0,17.0,30.06,SE,139,0.0,4.0,54,0.00,,,0.00,,2013-03-22 15:42:00,
2013-03-22 10:53:00,33.0,17.0,30.06,SE,143,1.0,3.0,51,0.00,,,0.00,,2013-03-22 15:53:00,
2013-03-22 11:02:00,33.0,15.0,30.05,East,90,4.0,6.0,47,0.00,,,0.00,,2013-03-22 16:02:00,
2013-03-22 11:13:00,34.0,16.0,30.05,WSW,253,2.0,4.0,47,0.00,,,0.00,,2013-03-22 16:13:00,
2013-03-22 11:22:00,34.0,16.0,30.05,WSW,253,2.0,4.0,47,0.00,,,0.00,,2013-03-22 16:22:00,
2013-03-22 11:32:00,35.0,17.0,30.05,WNW,282,2.0,4.0,47,0.00,,,0.00,,2013-03-22 16:32:00,
2013-03-22 11:42:00,36.0,15.0,30.05,ESE,112,1.0,5.0,42,0.00,,,0.00,,2013-03-22 16:42:00,
2013-03-22 11:52:00,36.0,15.0,30.05,ESE,112,1.0,5.0,42,0.00,,,0.00,,2013-03-22 16:52:00,
2013-03-22 12:03:00,36.0,15.0,30.05,WSW,254,0.0,4.0,42,0.00,,,0.00,,2013-03-22 17:03:00,
2013-03-22 12:12:00,38.0,17.0,30.04,NNW,327,2.0,5.0,42,0.00,,,0.00,,2013-03-22 17:12:00,
2013-03-22 12:23:00,38.0,17.0,30.04,NNW,327,2.0,5.0,42,0.00,,,0.00,,2013-03-22 17:23:00,
2013-03-22 12:32:00,38.0,16.0,30.04,North,5,0.0,4.0,40,0.00,,,0.00,,2013-03-22 17:32:00,
2013-03-22 12:42:00,38.0,16.0,30.04,North,5,0.0,4.0,40,0.00,,,0.00,,2013-03-22 17:42:00,
2013-03-22 12:53:00,38.0,15.0,30.03,NE,42,1.0,5.0,39,0.00,,,0.00,,2013-03-22 17:53:00,
2013-03-22 13:02:00,39.0,14.0,30.02,ESE,103,2.0,5.0,36,0.00,,,0.00,,2013-03-22 18:02:00,
2013-03-22 13:12:00,39.0,14.0,30.02,ESE,103,2.0,5.0,36,0.00,,,0.00,,2013-03-22 18:12:00,
2013-03-22 13:22:00,39.0,17.0,30.02,East,88,2.0,8.0,40,0.00,,,0.00,,2013-03-22 18:22:00,
2013-03-22 13:33:00,39.0,14.0,30.01,NNE,22,1.0,5.0,36,0.00,,,0.00,,2013-03-22 18:33:00,
2013-03-22 13:42:00,39.0,14.0,30.01,NNE,22,1.0,5.0,36,0.00,,,0.00,,2013-03-22 18:42:00,
2013-03-22 13:52:00,40.0,15.0,30.01,ESE,113,1.0,4.0,36,0.00,,,0.00,,2013-03-22 18:52:00,
2013-03-22 14:02:00,41.0,15.0,30.01,North,349,0.0,4.0,35,0.00,,,0.00,,2013-03-22 19:02:00,
2013-03-22 14:12:00,41.0,15.0,30.01,North,349,0.0,4.0,35,0.00,,,0.00,,2013-03-22 19:12:00,
2013-03-22 14:22:00,41.0,15.0,30.01,North,349,0.0,4.0,35,0.00,,,0.00,,2013-03-22 19:22:00,
2013-03-22 14:32:00,41.0,17.0,30.00,NNW,346,2.0,6.0,37,0.00,,,0.00,,2013-03-22 19:32:00,
2013-03-22 14:42:00,41.0,17.0,30.00,NNW,346,2.0,6.0,37,0.00,,,0.00,,2013-03-22 19:42:00,
2013-03-22 14:52:00,42.0,16.0,30.00,NNE,13,3.0,5.0,34,0.00,,,0.00,,2013-03-22 19:52:00,
2013-03-22 15:02:00,42.0,16.0,29.99,NNE,15,1.0,4.0,34,0.00,,,0.00,,2013-03-22 20:02:00,
2013-03-22 15:12:00,42.0,16.0,29.99,NNE,15,1.0,4.0,34,0.00,,,0.00,,2013-03-22 20:12:00,
2013-03-22 15:22:00,42.0,16.0,29.98,East,97,2.0,5.0,34,0.00,,,0.00,,2013-03-22 20:22:00,
2013-03-22 15:32:00,43.0,17.0,29.99,ENE,65,1.0,3.0,34,0.00,,,0.00,,2013-03-22 20:32:00,
2013-03-22 15:42:00,43.0,17.0,29.99,ENE,65,1.0,3.0,34,0.00,,,0.00,,2013-03-22 20:42:00,
2013-03-22 15:52:00,43.0,15.0,29.99,NW,313,1.0,8.0,32,0.00,,,0.00,,2013-03-22 20:52:00,
2013-03-22 16:03:00,44.0,16.0,29.98,WNW,303,2.0,7.0,32,0.00,,,0.00,,2013-03-22 21:03:00,
2013-03-22 16:12:00,44.0,17.0,29.98,North,360,2.0,5.0,33,0.00,,,0.00,,2013-03-22 21:12:00,
2013-03-22 16:22:00,44.0,17.0,29.98,North,360,2.0,5.0,33,0.00,,,0.00,,2013-03-22 21:22:00,
2013-03-22 16:33:00,44.0,15.0,29.98,NNW,340,0.0,6.0,31,0.00,,,0.00,,2013-03-22 21:33:00,
2013-03-22 16:42:00,44.0,15.0,29.98,NNW,340,0.0,6.0,31,0.00,,,0.00,,2013-03-22 21:42:00,
2013-03-22 16:52:00,44.0,16.0,29.99,ESE,123,0.0,3.0,32,0.00,,,0.00,,2013-03-22 21:52:00,
2013-03-22 17:03:00,44.0,17.0,29.99,NNW,343,3.0,5.0,34,0.00,,,0.00,,2013-03-22 22:03:00,
2013-03-22 17:12:00,44.0,17.0,29.99,NNW,343,3.0,5.0,34,0.00,,,0.00,,2013-03-22 22:12:00,
2013-03-22 17:23:00,44.0,15.0,29.99,NNW,347,0.0,4.0,31,0.00,,,0.00,,2013-03-22 22:23:00,
2013-03-22 17:32:00,44.0,15.0,30.00,WNW,302,0.0,5.0,30,0.00,,,0.00,,2013-03-22 22:32:00,
2013-03-22 17:42:00,44.0,15.0,30.00,WNW,302,0.0,5.0,30,0.00,,,0.00,,2013-03-22 22:42:00,
2013-03-22 17:52:00,44.0,15.0,29.99,NNW,337,0.0,6.0,30,0.00,,,0.00,,2013-03-22 22:52:00,
2013-03-22 18:02:00,43.0,16.0,29.99,North,355,0.0,2.0,33,0.00,,,0.00,,2013-03-22 23:02:00,
2013-03-22 18:12:00,43.0,16.0,29.99,North,355,0.0,2.0,33,0.00,,,0.00,,2013-03-22 23:12:00,
2013-03-22 18:22:00,42.0,16.0,29.98,North,355,0.0,1.0,35,0.00,,,0.00,,2013-03-22 23:22:00,
2013-03-22 18:32:00,42.0,16.0,29.98,North,355,0.0,0.0,35,0.00,,,0.00,,2013-03-22 23:32:00,
2013-03-22 18:42:00,42.0,16.0,29.98,North,355,0.0,0.0,35,0.00,,,0.00,,2013-03-22 23:42:00,
2013-03-22 18:52:00,42.0,15.0,29.99,NNW,344,0.0,3.0,33,0.00,,,0.00,,2013-03-22 23:52:00,
2013-03-22 19:02:00,41.0,19.0,29.99,NNW,345,1.0,4.0,40,0.00,,,0.00,,2013-03-23 00:02:00,
2013-03-22 19:12:00,41.0,19.0,29.99,NNW,345,1.0,4.0,40,0.00,,,0.00,,2013-03-23 00:12:00,
2013-03-22 19:23:00,40.0,19.0,30.00,NNW,345,0.0,0.0,43,0.00,,,0.00,,2013-03-23 00:23:00,
2013-03-22 19:32:00,39.0,19.0,30.00,NNW,345,0.0,1.0,44,0.00,,,0.00,,2013-03-23 00:32:00,
2013-03-22 19:42:00,38.0,20.0,30.01,NNW,345,0.0,2.0,48,0.00,,,0.00,,2013-03-23 00:42:00,
2013-03-22 19:52:00,38.0,20.0,30.01,NNW,345,0.0,2.0,48,0.00,,,0.00,,2013-03-23 00:52:00,
2013-03-22 20:03:00,38.0,21.0,30.01,NNW,345,0.0,3.0,49,0.00,,,0.00,,2013-03-23 01:03:00,
2013-03-22 20:12:00,38.0,21.0,30.01,NNW,345,0.0,3.0,49,0.00,,,0.00,,2013-03-23 01:12:00,
2013-03-22 20:22:00,38.0,22.0,30.02,NNW,345,0.0,2.0,51,0.00,,,0.00,,2013-03-23 01:22:00,
2013-03-22 20:32:00,37.0,21.0,30.03,NNW,346,0.0,2.0,51,0.00,,,0.00,,2013-03-23 01:32:00,
2013-03-22 20:42:00,37.0,21.0,30.03,NNW,346,0.0,2.0,51,0.00,,,0.00,,2013-03-23 01:42:00,
2013-03-22 20:52:00,37.0,21.0,30.03,NNW,344,0.0,0.0,52,0.00,,,0.00,,2013-03-23 01:52:00,
2013-03-22 21:02:00,37.0,21.0,30.03,NNW,344,0.0,0.0,52,0.00,,,0.00,,2013-03-23 02:02:00,
2013-03-22 21:12:00,37.0,21.0,30.03,NNW,344,0.0,0.0,52,0.00,,,0.00,,2013-03-23 02:12:00,
2013-03-22 21:22:00,37.0,21.0,30.03,NNW,344,0.0,0.0,51,0.00,,,0.00,,2013-03-23 02:22:00,
2013-03-22 21:32:00,37.0,20.0,30.03,NNW,344,0.0,0.0,50,0.00,,,0.00,,2013-03-23 02:32:00,
2013-03-22 21:42:00,37.0,20.0,30.03,NNW,344,0.0,0.0,50,0.00,,,0.00,,2013-03-23 02:42:00,
2013-03-22 21:52:00,37.0,20.0,30.03,North,11,0.0,2.0,50,0.00,,,0.00,,2013-03-23 02:52:00,
2013-03-22 22:02:00,37.0,20.0,30.03,North,11,0.0,0.0,50,0.00,,,0.00,,2013-03-23 03:02:00,
2013-03-22 22:12:00,37.0,20.0,30.03,North,11,0.0,0.0,50,0.00,,,0.00,,2013-03-23 03:12:00,
2013-03-22 22:22:00,37.0,20.0,30.03,North,11,0.0,1.0,50,0.00,,,0.00,,2013-03-23 03:22:00,
2013-03-22 22:33:00,37.0,20.0,30.03,North,11,0.0,0.0,50,0.00,,,0.00,,2013-03-23 03:33:00,
2013-03-22 22:43:00,37.0,20.0,30.03,North,11,0.0,0.0,50,0.00,,,0.00,,2013-03-23 03:43:00,
2013-03-22 22:53:00,37.0,20.0,30.03,North,11,0.0,0.0,50,0.00,,,0.00,,2013-03-23 03:53:00,
2013-03-22 23:02:00,37.0,20.0,30.03,North,11,0.0,0.0,50,0.00,,,0.00,,2013-03-23 04:02:00,
2013-03-22 23:12:00,37.0,20.0,30.03,North,11,0.0,0.0,50,0.00,,,0.00,,2013-03-23 04:12:00,
2013-03-22 23:23:00,36.0,20.0,30.03,North,11,0.0,1.0,52,0.00,,,0.00,,2013-03-23 04:23:00,
2013-03-22 23:32:00,35.0,20.0,30.03,NE,55,0.0,3.0,55,0.00,,,0.00,,2013-03-23 04:32:00,
2013-03-22 23:43:00,35.0,20.0,30.03,NE,55,0.0,3.0,55,0.00,,,0.00,,2013-03-23 04:43:00,
2013-03-22 23:53:00,35.0,21.0,30.04,NE,55,0.0,2.0,57,0.00,,,0.00,,2013-03-23 04:53:00,